Location: Quesnel
(52.9830°N, 122.4830°W)
Time: 09:13:19
(UTC-07:00)

ISS - All Passes

Search period start: 05 September 2015 00:00
Search period end: 15 September 2015 00:00
Orbit: 400 x 402 km, 51.6° (Epoch: 05 September)

Date Brightness Start Highest point End Pass type
(mag) Time Alt. Az. Time Alt. Az. Time Alt. Az.
05 Sep - 08:52:04 10° SW 08:55:00 32° SSE 08:57:59 10° E daylight
05 Sep - 10:27:56 10° WSW 10:31:10 68° S 10:34:25 10° E daylight
05 Sep - 12:04:15 10° W 12:07:28 54° SSW 12:10:39 10° ESE daylight
05 Sep - 13:41:00 10° W 13:43:26 19° SSW 13:45:51 10° SSE daylight
06 Sep - 07:59:14 10° SSW 08:01:50 22° SSE 08:04:29 10° E daylight
06 Sep - 09:34:38 10° WSW 09:37:52 59° SSE 09:41:06 10° E daylight
06 Sep - 11:10:55 10° W 11:14:10 65° S 11:17:24 10° ESE daylight
06 Sep - 12:47:25 10° W 12:50:17 28° SSW 12:53:07 10° SSE daylight
07 Sep - 07:06:44 10° S 07:08:42 15° SE 07:10:42 10° ESE daylight
07 Sep - 08:41:26 10° WSW 08:44:35 46° SSE 08:47:44 10° E daylight
07 Sep - 10:17:35 10° W 10:20:50 71° S 10:24:06 10° E daylight
07 Sep - 11:53:58 10° W 11:57:03 39° SSW 12:00:07 10° SE daylight
07 Sep - 13:31:37 10° WSW 13:32:51 12° SW 13:33:59 10° SSW daylight
08 Sep - 07:48:19 10° SW 07:51:19 34° SSE 07:54:21 10° E daylight
08 Sep - 09:24:15 10° W 09:27:30 69° S 09:30:45 10° E daylight
08 Sep - 11:00:35 10° W 11:03:47 51° SSW 11:06:58 10° ESE daylight
08 Sep - 12:37:25 10° W 12:39:43 18° SW 12:41:59 10° S daylight
09 Sep - 06:55:24 10° SSW 06:58:06 24° SSE 07:00:50 10° E daylight
09 Sep - 08:30:56 10° WSW 08:34:10 61° S 08:37:24 10° E daylight
09 Sep - 10:07:13 10° W 10:10:27 63° S 10:13:42 10° ESE daylight
09 Sep - 11:43:45 10° W 11:46:32 26° SSW 11:49:18 10° SSE daylight
10 Sep - 06:02:46 10° S 06:04:55 17° SE 06:07:07 10° ESE daylight
10 Sep - 07:37:40 10° WSW 07:40:50 49° SSE 07:44:01 10° E daylight
10 Sep - 09:13:51 10° W 09:17:06 70° S 09:20:22 10° E daylight
10 Sep - 10:50:15 10° W 10:53:18 36° SSW 10:56:20 10° SE daylight
10 Sep - 12:28:26 10° SW 12:29:03 10° SW 12:29:34 10° SSW daylight
11 Sep - 05:11:00 10° SSE 05:11:47 11° SE 05:12:39 10° SE visible
11 Sep - 06:44:30 10° SW 06:47:33 37° SSE 06:50:36 10° E daylight
11 Sep - 08:20:29 10° W 08:23:44 70° S 08:27:00 10° E daylight
11 Sep - 09:56:50 10° W 10:00:01 49° SSW 10:03:10 10° ESE daylight
11 Sep - 11:33:46 10° WSW 11:35:54 16° SW 11:38:00 10° S daylight
12 Sep - 05:51:29 10° SSW 05:54:16 26° SSE 05:57:05 10° E visible
12 Sep - 07:27:07 10° WSW 07:30:22 64° S 07:33:36 10° E daylight
12 Sep - 09:03:25 10° W 09:06:39 61° S 09:09:53 10° ESE daylight
12 Sep - 10:40:01 10° W 10:42:43 24° SSW 10:45:23 10° SSE daylight
13 Sep - 04:58:44 10° SSW 05:01:03 18° SSE 05:03:24 10° E visible
13 Sep - 06:33:49 10° WSW 06:37:00 52° SSE 06:40:12 10° E daylight
13 Sep - 08:10:01 10° W 08:13:17 69° S 08:16:32 10° ESE daylight
13 Sep - 09:46:27 10° W 09:49:26 34° SSW 09:52:26 10° SE daylight
14 Sep - 04:06:36 10° SSE 04:07:52 12° SE 04:09:13 10° ESE visible
14 Sep - 05:40:35 10° SW 05:43:40 40° SSE 05:46:45 10° E visible
14 Sep - 07:16:37 10° W 07:19:53 71° S 07:23:08 10° E daylight
14 Sep - 08:52:58 10° W 08:56:08 46° SSW 08:59:16 10° SE daylight
14 Sep - 10:30:03 10° WSW 10:32:00 15° SW 10:33:53 10° S daylight
